RH
4 4 5 5 5 6 7 9 12 16 20 24 27 28 28 28 27 27 27 26 26 25 24 24 23 23 23 22 22 22 22 22 23 24 22 21 23 24 24 24 24 25 24 24 24 22 20 17 14 10 8 6 5 6 7 8 9 12 15 16 12 8 11 12 15 21 24 28 29 30 33 33 29 26 25 25 25 24 23 21 19 17 17 21 27 33 37 37
6 6 7 8 10 13 17 21 25 28 30 30 30 30 29 29 29 28 26 25 25 24 23 23 23 23 22 23 23 23 22 23 24 25 23 23 24 25 25 25 26 26 26 25 26 26 24 23 19 16 13 9 7 7 9 12 13 14 16 15 10 8 11 12 13 16 20 25 27 26 27 26 23 22 23 24 23 22 21 19 17 16 14 15 22 31 38 39
10 12 15 17 21 26 30 32 33 33 33 32 32 31 30 29 28 26 25 24 24 23 23 23 22 22 22 23 23 23 24 24 24 25 24 24 25 25 26 26 27 27 27 27 27 28 27 26 25 22 18 14 10 10 11 14 17 19 21 19 13 12 15 15 15 14 18 26 27 25 24 22 21 21 21 21 21 20 19 18 17 17 16 16 20 29 37 41
16 20 24 27 31 33 35 35 34 34 33 32 31 30 29 28 27 25 25 24 23 23 23 23 22 22 23 23 24 24 25 24 25 25 24 24 25 26 27 27 28 28 29 29 29 29 29 28 27 25 21 18 13 11 12 13 17 22 24 20 15 16 18 17 17 16 20 28 28 25 23 21 20 20 19 19 19 17 18 20 20 22 22 23 25 29 35 39
26 29 31 33 34 35 35 34 34 33 32 31 30 29 27 26 25 24 23 23 23 23 23 23 23 23 24 24 24 25 25 24 24 24 24 25 26 27 28 28 28 29 30 31 31 30 29 28 25 23 21 20 15 12 12 12 15 20 21 17 15 17 18 19 20 18 21 26 26 23 22 21 20 20 20 19 18 18 20 22 23 23 24 27 29 32 34 38
35 34 35 35 35 35 34 34 33 32 31 29 28 26 25 24 23 23 23 23 23 23 23 23 23 24 24 24 23 24 25 24 24 25 26 26 28 28 27 28 29 30 31 30 30 29 28 26 23 20 19 18 15 12 11 12 15 17 17 15 15 17 19 21 21 21 21 23 23 21 21 21 21 21 21 20 19 19 21 23 24 23 24 29 33 37 38 38
37 36 36 36 35 34 33 32 31 29 27 25 24 22 22 22 22 23 23 22 22 21 21 21 22 23 24 25 26 28 29 29 29 28 27 28 29 29 29 30 30 30 30 29 28 27 25 23 21 18 17 16 14 13 12 12 14 16 16 15 16 18 20 22 22 23 22 20 20 19 20 20 20 20 20 20 19 19 20 22 25 27 28 31 36 40 42 42
38 37 36 34 33 31 29 28 25 24 23 21 21 21 21 22 22 21 21 20 19 19 19 21 25 28 29 30 33 33 32 31 30 29 28 29 29 30 30 30 30 30 29 28 27 28 27 25 21 17 15 14 13 14 14 14 15 17 18 19 20 20 21 22 23 24 22 20 20 20 20 20 21 20 20 20 19 19 19 22 26 29 32 34 37 41 45 48
35 33 32 31 28 27 25 23 23 23 22 22 23 22 21 20 18 18 18 20 22 24 26 29 33 34 33 34 36 34 31 30 29 29 29 30 30 29 30 30 30 31 30 29 29 30 29 24 20 17 15 13 13 14 14 15 16 18 20 22 24 24 23 24 24 24 22 21 20 20 21 23 23 21 21 21 21 21 21 24 27 30 33 36 37 39 44 49
32 31 29 27 25 24 23 24 25 25 25 24 22 19 17 17 20 22 24 27 29 31 32 34 34 34 34 35 35 33 29 29 29 29 28 26 25 23 24 25 26 26 27 28 29 29 28 23 20 17 15 13 12 12 12 14 15 16 18 20 23 25 25 25 25 23 22 21 19 20 24 25 23 21 22 23 23 24 25 26 29 32 34 35 37 39 42 48
29 28 26 25 25 25 25 26 26 26 23 19 17 17 20 24 26 27 27 28 28 30 30 31 32 32 34 34 33 31 28 27 25 22 20 18 16 15 15 16 17 16 17 20 23 23 22 20 17 15 14 14 13 13 12 13 13 14 15 17 18 20 22 21 21 19 18 19 17 18 22 23 22 22 23 23 24 26 27 29 30 32 33 34 36 38 42 46
28 27 26 26 26 25 25 24 23 21 17 16 20 24 25 23 21 20 20 22 25 27 28 30 31 32 33 32 30 26 23 20 17 16 14 12 12 12 12 12 12 12 12 13 14 15 15 14 13 12 13 13 13 13 13 14 14 15 15 16 16 16 17 17 17 18 17 18 16 17 21 24 25 25 25 25 27 28 30 30 30 31 31 32 35 37 41 44
27 26 25 23 22 21 20 19 17 15 16 22 25 22 18 14 12 14 15 18 23 26 28 29 30 30 29 28 25 21 18 16 15 14 12 11 10 10 11 12 11 12 12 11 11 11 11 11 10 10 11 11 12 12 13 13 14 15 15 15 14 14 16 19 24 27 26 24 22 22 25 27 27 27 27 27 28 30 32 32 32 32 32 33 35 38 41 45
22 20 17 16 15 14 14 13 14 17 24 27 21 13 11 10 9 11 13 15 20 24 26 28 26 25 25 25 22 19 17 15 13 12 10 10 10 10 11 11 11 11 11 11 12 12 12 12 11 11 11 11 11 11 12 13 13 14 15 16 19 21 25 30 34 34 33 31 29 29 28 29 29 29 29 29 30 31 33 34 35 35 36 36 37 39 41 44
15 12 10 9 9 10 12 16 21 26 28 22 13 10 11 10 8 11 12 13 19 23 24 24 22 24 25 23 20 18 14 11 10 9 8 9 10 10 11 11 11 11 11 12 12 12 13 13 13 12 12 12 13 13 15 17 18 19 21 24 29 32 35 37 37 36 35 33 33 32 31 30 30 31 30 30 31 33 35 38 40 41 42 42 41 41 42 44
15 16 16 16 16 19 23 26 27 26 22 15 12 12 11 9 8 9 11 14 20 22 22 21 20 26 27 19 17 15 10 9 8 7 7 9 10 10 10 10 10 10 10 11 13 15 15 14 14 14 16 17 18 19 21 23 25 29 32 35 36 37 38 38 37 35 33 31 32 33 33 32 31 31 30 31 32 34 38 40 44 45 45 45 44 44 45 46
24 26 27 26 27 27 27 25 22 19 16 13 13 12 10 8 8 8 10 16 21 21 21 19 18 26 27 16 12 11 8 9 9 8 9 9 9 9 9 9 9 10 12 15 17 16 14 14 15 18 23 25 27 29 29 30 32 35 38 38 37 37 37 35 34 34 33 32 33 34 33 32 32 32 32 33 35 36 39 42 45 47 47 47 47 48 48 48
27 28 28 27 26 24 21 19 17 16 14 13 12 10 9 8 7 7 10 17 20 19 18 14 13 18 21 13 9 10 9 9 10 10 10 9 10 10 9 10 9 11 16 18 16 14 14 17 21 26 31 35 38 39 38 38 38 37 37 36 34 33 31 29 29 31 34 37 37 36 34 32 31 33 34 35 37 38 41 44 48 50 50 51 51 50 50 50
25 26 25 24 22 19 18 17 15 14 12 11 9 9 8 7 7 6 10 17 17 14 12 11 10 11 13 11 9 11 11 11 11 10 10 10 10 10 10 11 10 12 15 14 13 14 16 20 26 31 32 33 34 35 37 38 36 32 30 28 26 25 24 25 28 31 36 41 42 38 36 34 34 34 36 38 40 42 45 48 52 55 55 54 54 52 52 53
22 22 20 19 18 16 16 14 12 11 10 9 8 8 8 6 7 6 10 16 15 11 10 10 11 11 11 11 11 13 12 12 11 10 10 10 10 11 11 11 12 12 11 11 12 14 18 26 31 28 23 21 19 20 23 26 27 27 26 26 27 29 29 32 37 41 45 47 44 42 39 39 40 40 42 43 45 47 48 52 57 60 59 56 55 54 55 56
17 16 16 14 13 12 10 9 8 7 7 7 6 6 6 5 7 7 10 15 14 11 10 11 12 12 11 11 13 15 14 12 11 10 10 9 10 12 11 12 12 11 11 11 13 18 25 29 26 20 17 15 14 15 17 22 28 28 27 27 29 34 38 42 46 47 49 50 48 46 45 45 47 47 48 48 50 52 54 59 62 62 59 57 56 56 57 59
16 15 14 11 9 7 6 6 6 6 5 6 5 5 6 6 6 7 10 14 14 11 10 13 12 11 11 11 11 14 13 11 11 10 9 10 11 11 12 12 11 11 12 13 19 26 28 23 18 18 18 18 21 22 25 32 34 28 25 23 23 31 41 47 50 50 49 49 48 46 46 48 50 51 52 53 55 58 61 63 63 62 61 60 59 58 59 61
17 15 12 8 6 5 5 6 5 5 5 5 6 6 6 6 6 7 9 14 15 12 12 14 13 11 11 10 10 14 13 10 11 10 11 11 11 12 12 12 13 13 13 18 26 25 21 21 21 22 24 27 30 31 32 33 30 24 22 23 25 33 41 45 48 48 44 43 43 44 48 52 55 55 57 59 61 64 65 63 60 62 63 62 60 59 59 61
18 15 10 7 6 6 6 6 6 6 6 6 7 7 7 7 8 7 9 16 17 13 12 13 13 11 11 10 11 14 13 11 12 12 12 13 12 13 13 13 14 14 14 22 28 23 20 25 28 29 30 32 34 32 29 25 23 24 27 28 29 33 37 37 39 40 38 38 39 41 53 62 64 64 64 63 65 67 64 59 56 57 59 58 59 59 59 60
18 15 11 7 6 7 6 6 6 6 6 7 6 7 6 7 8 7 10 17 17 13 12 13 14 13 13 13 12 14 15 13 13 13 13 13 13 14 14 14 14 17 18 22 27 24 19 27 33 34 32 32 33 28 25 25 25 27 30 30 30 32 32 32 34 39 41 42 40 41 58 70 67 66 67 66 68 68 62 56 54 54 55 56 57 57 58 60
19 18 14 9 6 6 5 6 6 6 6 6 5 5 6 7 9 9 14 19 15 13 14 13 15 14 13 13 12 14 16 15 15 15 14 13 12 14 15 15 16 19 19 18 23 24 22 31 37 35 32 31 29 27 28 30 29 30 31 30 31 32 32 32 34 39 42 44 44 45 57 67 65 64 65 67 69 67 61 57 55 55 56 56 57 58 59 60
19 19 16 10 6 5 5 5 5 5 4 4 5 5 5 8 9 11 20 22 16 15 17 14 15 16 14 14 13 14 14 17 18 15 12 12 13 16 16 15 16 16 14 15 19 21 25 34 38 36 34 30 28 29 31 31 29 31 32 31 31 30 30 32 34 38 41 46 50 52 58 63 64 67 68 66 67 65 59 56 56 57 59 60 60 60 59 59
19 18 17 10 6 5 4 5 5 4 4 5 5 5 7 8 9 15 24 24 18 17 18 17 17 18 17 16 13 12 12 14 17 14 13 14 14 17 15 13 15 14 12 13 16 21 28 34 38 36 32 30 31 31 30 30 29 32 34 33 30 31 33 34 37 42 46 51 53 53 62 71 68 66 68 65 64 62 59 59 61 62 63 62 61 59 56 54
17 17 17 10 5 5 4 4 5 5 5 5 5 6 8 10 15 22 22 20 20 18 17 18 18 18 18 16 13 11 11 11 13 14 16 15 11 15 16 12 14 15 12 12 16 24 32 37 38 33 30 31 32 31 31 32 35 35 32 29 29 34 36 37 40 44 49 55 53 48 58 74 73 62 60 60 59 60 64 67 65 62 61 59 58 55 51 50
16 16 15 8 4 4 4 5 6 6 6 6 6 6 9 14 21 23 18 18 21 19 17 17 17 16 14 13 11 11 13 11 13 16 17 15 11 15 18 14 14 14 13 15 19 27 35 37 35 32 33 32 30 34 37 37 39 35 30 28 29 32 33 34 36 38 48 57 51 43 50 66 73 65 58 61 62 65 68 66 64 62 60 57 54 51 50 51
17 16 13 6 4 5 5 6 6 7 6 6 7 7 9 12 16 19 19 21 21 17 17 16 15 14 11 10 9 10 13 10 11 15 14 14 11 10 13 12 11 12 12 16 24 35 40 35 32 36 36 28 25 34 37 36 36 31 29 28 26 28 27 27 32 37 53 62 48 40 44 55 69 65 57 60 62 65 66 63 63 61 58 54 52 51 51 51
16 15 11 5 4 6 6 7 6 6 7 6 7 10 12 10 12 18 20 21 19 16 18 16 13 13 11 10 9 9 13 11 11 15 13 13 12 8 11 13 13 13 14 17 24 32 37 33 32 39 37 27 25 33 35 33 32 30 29 26 32 50 52 51 58 56 58 55 36 33 42 49 58 58 53 56 58 61 63 61 59 56 54 52 51 52 52 50
15 13 8 4 6 7 6 6 6 6 7 6 8 11 11 11 15 21 18 17 17 17 20 16 11 12 10 10 9 9 14 14 13 19 16 15 15 12 14 17 17 19 20 21 22 24 33 35 34 39 39 31 32 40 40 37 35 34 31 28 42 71 81 83 85 72 63 51 27 29 48 52 54 54 53 56 59 60 59 56 57 56 55 53 53 54 54 51
14 10 6 5 7 7 5 6 5 6 7 6 8 9 9 12 18 20 16 15 15 16 20 17 11 12 10 8 10 10 14 14 14 19 16 14 15 13 15 19 20 21 21 24 27 30 38 41 39 42 40 34 38 46 45 42 40 37 32 28 37 59 70 75 79 70 66 58 35 33 47 51 53 53 52 55 57 57 55 55 59 58 56 55 55 56 55 49
11 7 6 6 7 6 5 6 5 6 7 6 8 7 8 14 17 17 16 15 13 11 16 17 12 11 10 9 10 11 15 16 15 18 15 14 19 17 17 20 22 24 23 26 30 31 36 40 41 41 37 38 45 48 47 44 40 40 34 24 31 48 52 53 56 52 55 64 59 51 47 46 51 51 48 50 51 52 54 55 56 56 56 56 56 54 49 39
7 5 7 7 6 6 6 6 6 7 7 7 8 6 8 13 15 15 15 13 11 7 12 17 13 9 10 10 11 12 16 17 16 17 16 18 24 22 21 23 27 30 28 29 30 28 31 34 33 31 33 42 48 49 50 46 41 44 37 25 33 48 46 37 35 38 53 68 65 55 47 47 52 50 44 46 47 50 55 55 55 56 56 56 54 47 37 24
6 6 7 6 6 7 7 7 7 6 6 7 7 6 10 12 11 12 12 10 10 7 9 14 12 9 10 10 10 11 16 18 16 17 18 21 27 26 24 26 29 33 32 32 32 30 32 34 30 28 32 42 48 48 49 46 45 45 38 30 33 43 45 37 38 54 70 73 61 51 50 54 57 51 42 42 45 49 53 52 52 54 54 52 44 32 21 15
7 7 7 7 7 7 6 7 7 5 6 6 6 6 9 10 10 10 10 9 10 8 8 10 11 11 11 11 11 12 15 18 16 18 20 22 27 27 26 27 30 33 33 33 32 29 32 35 32 30 31 41 47 44 42 46 48 43 36 31 30 40 46 38 42 59 69 76 75 62 54 55 54 46 38 39 44 47 49 47 48 51 49 41 29 18 15 16
7 7 8 7 7 6 4 5 4 5 6 5 4 6 7 8 8 9 9 9 9 9 9 9 11 12 11 12 13 13 15 18 17 19 21 23 27 27 27 29 31 31 31 33 31 28 33 37 32 27 29 36 39 34 37 47 46 37 32 28 25 38 46 40 43 51 59 81 91 78 66 54 41 35 35 39 43 44 46 46 46 47 39 26 17 14 16 17
7 8 8 6 6 4 2 3 5 5 5 4 4 6 6 7 7 7 8 9 9 9 9 10 11 12 11 13 14 13 17 20 18 20 21 23 25 26 27 29 30 30 29 32 30 27 35 41 34 27 26 30 35 36 41 49 45 34 30 28 24 29 35 36 41 45 58 85 95 94 85 50 23 27 31 33 39 42 45 46 44 39 27 16 14 15 17 17
8 7 6 5 5 3 2 4 5 5 3 3 5 5 6 7 6 7 7 8 9 9 10 10 11 11 11 13 14 14 17 20 19 20 22 23 24 25 28 28 28 29 27 29 30 27 36 41 33 27 26 28 36 41 44 49 46 37 36 37 32 31 35 42 47 47 57 72 74 87 88 43 14 24 27 29 37 38 38 39 34 28 18 13 15 17 18 19
7 6 4 4 4 4 4 4 3 3 3 4 5 5 6 7 6 7 7 8 9 9 10 10 10 12 11 13 14 14 17 20 21 20 21 24 24 25 27 26 26 28 26 29 30 28 37 40 30 27 28 29 37 42 43 47 44 38 39 40 38 36 39 50 55 50 55 59 54 74 87 48 16 21 24 24 27 24 26 29 24 18 13 13 17 17 19 21
5 4 4 3 3 4 5 4 3 4 4 4 5 5 6 6 6 7 6 7 8 9 10 10 10 12 12 13 15 14 16 20 21 20 21 23 24 24 26 26 26 28 28 30 30 31 42 45 33 28 27 26 32 38 42 47 46 40 37 40 42 36 33 44 50 49 57 58 52 74 84 44 13 17 17 13 15 15 18 21 17 14 14 16 18 18 21 24
3 4 4 3 4 4 4 4 3 4 4 5 5 5 6 6 6 7 7 7 7 8 10 10 10 12 12 13 15 14 16 18 20 21 21 22 23 24 26 25 26 28 29 31 31 30 38 41 36 35 39 41 40 40 43 45 42 37 33 36 38 32 34 41 42 52 65 57 53 78 78 33 8 14 11 8 13 14 14 16 15 15 16 17 18 20 23 27
3 3 3 4 4 4 4 4 4 4 4 4 5 5 6 5 5 6 7 7 6 8 10 10 10 12 12 13 14 15 16 17 20 21 20 21 24 24 25 25 26 28 29 31 32 30 31 33 32 33 41 50 50 47 46 45 40 33 29 34 36 33 38 39 41 61 71 57 54 67 54 19 5 11 10 10 15 14 14 17 17 17 18 18 21 24 26 32
4 4 3 3 4 4 4 4 4 5 5 5 5 4 5 5 5 6 6 6 6 8 9 9 10 12 12 13 14 15 16 17 19 20 19 21 23 23 24 26 26 28 30 31 32 31 30 31 31 30 31 36 39 40 44 47 42 32 28 32 33 34 38 38 45 57 55 47 45 33 19 13 10 8 9 12 16 17 17 17 17 19 20 21 24 27 29 33
6 5 5 4 4 4 3 4 4 4 4 5 4 4 5 5 5 6 6 6 6 7 9 9 9 11 12 13 14 14 16 17 18 19 20 21 23 23 24 26 27 28 30 32 32 32 31 30 31 31 30 31 34 36 41 44 40 34 33 30 25 30 38 39 39 37 33 41 38 15 8 16 10 5 11 15 17 18 16 16 18 19 20 23 25 27 29 31
4 5 5 4 4 4 4 4 4 4 4 4 3 4 4 4 5 6 5 6 6 7 8 8 9 10 10 11 13 13 14 15 17 19 20 21 22 22 23 26 29 29 30 33 32 32 32 31 32 31 29 29 33 36 39 40 38 37 37 28 18 24 35 34 29 26 29 35 26 9 11 15 8 8 15 17 18 18 15 16 18 18 20 22 24 25 28 33
3 3 3 3 3 3 3 3 4 4 4 4 3 4 4 4 6 5 5 6 6 7 8 8 9 10 10 11 12 12 13 14 16 18 19 20 22 23 23 25 28 29 30 32 33 33 33 32 34 34 28 26 32 36 37 38 39 37 31 21 16 21 30 32 27 23 23 21 12 10 15 13 9 13 17 18 20 18 16 17 17 19 21 22 24 27 31 38
3 3 3 3 3 3 3 3 4 4 4 4 4 4 4 4 5 5 5 6 6 7 7 8 9 9 10 11 11 11 13 15 16 17 19 20 21 22 23 24 26 28 31 33 34 35 35 35 36 37 31 25 29 34 35 37 41 37 24 15 15 22 28 30 25 19 18 16 12 15 19 14 11 16 19 20 19 16 16 17 17 19 22 24 27 30 35 41
3 3 3 3 3 3 4 3 4 4 3 4 3 4 4 4 5 5 5 5 5 6 7 7 8 9 10 11 11 11 13 15 16 17 19 20 21 22 23 24 26 28 31 34 35 35 38 39 38 40 38 28 27 34 35 36 38 31 20 17 21 23 22 20 17 15 16 17 18 22 22 16 15 19 22 21 18 16 17 17 17 19 21 25 28 31 37 41
3 3 3 4 3 3 4 3 4 4 4 4 3 3 4 4 4 5 5 5 5 6 6 7 8 8 9 10 11 11 12 15 16 17 18 20 21 21 23 24 25 28 31 34 36 36 39 40 40 45 45 32 30 38 38 37 36 27 21 25 24 18 14 13 13 14 15 19 24 24 20 18 21 24 23 20 17 15 16 17 17 18 20 25 30 33 37 38
Wind_Speed
16 16 15 15 15 16 16 16 16 15 15 14 13 12 10 9 8 6 5 5 4 4 3 3 4 4 5 5 5 5 5 5 6 7 7 6 6 6 6 6 7 7 7 7 6 7 8 9 10 11 11 12 12 12 12 13 13 15 16 18 20 21 19 15 14 15 14 13 12 12 14 15 16 17 17 18 19 18 18 19 21 23 23 23 23 22 21 21
17 17 16 16 16 16 17 16 15 14 13 11 10 8 7 5 4 4 3 3 4 4 4 5 6 7 7 8 8 9 9 8 8 9 8 8 9 9 9 9 9 10 10 10 9 9 10 11 11 11 11 12 13 13 13 14 15 16 17 18 19 18 16 14 13 15 15 13 13 14 14 16 18 19 20 21 23 23 23 23 23 23 24 25 25 24 23 23
18 18 17 17 16 16 15 14 12 11 9 8 6 5 4 3 3 3 4 4 5 6 7 8 9 9 10 10 11 12 12 10 10 10 9 10 11 12 12 12 12 11 12 11 11 11 11 12 13 13 13 12 13 13 14 15 16 17 18 18 16 14 14 13 13 14 14 15 16 18 18 18 21 22 23 24 24 25 24 24 23 22 22 24 25 25 24 24
18 17 17 16 15 14 12 11 9 8 6 4 3 2 2 3 4 5 6 7 7 8 9 10 11 11 12 12 13 13 13 12 11 9 11 12 13 14 14 13 12 12 12 12 12 12 12 14 15 15 14 14 13 14 15 15 16 17 19 18 15 14 14 14 12 13 15 17 19 21 20 20 22 23 24 24 24 25 24 23 22 22 22 23 24 25 25 25
17 16 15 13 12 11 9 8 6 4 3 2 2 3 4 5 6 7 8 9 9 10 11 11 12 12 12 13 13 13 13 12 10 8 11 13 14 15 13 13 13 12 12 13 13 13 14 15 15 15 14 14 15 15 14 14 15 17 18 17 15 15 16 15 15 14 15 18 21 23 23 23 24 24 24 25 26 26 24 23 23 23 23 24 24 25 26 27
14 13 11 10 9 7 6 4 3 1 1 2 4 5 6 7 8 9 10 11 12 12 12 12 12 12 12 12 13 12 11 11 9 9 11 12 13 13 13 13 13 13 13 13 13 14 14 15 15 14 14 14 15 15 13 13 15 18 18 17 17 16 16 17 17 16 17 19 22 24 24 25 25 25 25 27 28 26 25 24 24 24 24 24 24 25 26 27
11 10 8 7 5 4 2 1 1 2 4 5 6 7 8 9 10 11 12 13 13 13 13 12 11 10 10 10 10 10 9 9 9 9 9 9 11 12 12 12 12 12 12 12 12 12 13 14 13 14 14 14 15 15 14 14 16 19 19 17 17 17 19 20 20 19 20 21 23 25 26 27 27 27 27 27 27 26 25 25 25 25 24 25 25 25 25 27
8 7 5 4 2 1 1 3 4 5 6 7 8 9 10 11 12 12 13 13 12 12 11 10 8 8 8 8 8 8 8 8 8 8 8 8 9 9 9 9 9 9 10 10 11 11 12 12 12 12 13 13 14 14 14 14 16 18 18 16 16 17 19 20 21 21 22 24 26 28 28 27 27 27 26 25 25 25 26 26 25 25 24 25 25 26 26 26
5 4 2 1 1 2 4 5 6 7 8 9 10 10 11 11 11 11 11 11 10 9 8 7 7 7 7 7 7 8 8 7 7 7 7 8 8 8 8 8 8 8 10 10 9 10 11 11 11 11 12 13 13 13 14 15 16 16 16 16 16 16 17 19 21 23 24 27 28 28 26 26 27 27 24 24 25 25 26 25 25 24 24 24 25 26 27 27
2 0 1 3 4 5 7 8 9 9 10 10 11 11 10 10 9 9 9 8 8 8 7 7 7 7 7 7 7 7 7 7 8 8 8 8 8 9 8 7 8 8 9 10 9 9 11 12 11 11 12 13 13 12 13 14 16 17 16 16 16 17 18 19 21 24 26 28 29 28 27 29 30 28 25 24 24 24 24 24 24 24 24 24 25 26 27 27
2 3 4 5 7 8 9 10 10 10 10 10 9 8 7 7 6 6 5 6 6 6 6 6 7 6 5 6 6 6 6 8 8 9 9 9 9 10 10 8 8 8 8 9 8 9 11 11 11 11 12 12 11 10 12 14 15 17 19 19 18 19 20 22 24 26 27 28 29 28 28 29 28 26 25 25 23 22 22 22 23 23 24 24 25 26 26 27
5 6 7 8 8 9 9 9 10 9 8 7 6 5 5 5 5 5 6 6 6 6 6 5 5 5 4 5 5 5 6 8 9 10 10 11 10 10 10 9 8 8 8 8 7 8 10 10 10 11 11 12 11 10 11 12 13 15 17 18 18 17 19 20 21 22 23 25 26 25 23 24 24 23 24 24 22 20 20 21 22 23 24 24 24 25 25 26
7 8 8 8 9 8 8 8 8 7 5 4 4 4 5 6 6 7 6 6 6 6 6 5 5 4 4 4 4 5 8 9 9 10 11 11 10 9 9 8 7 7 7 7 7 6 7 7 8 10 11 11 11 11 11 12 14 14 15 17 16 16 15 14 14 14 16 18 21 20 18 21 22 22 23 22 21 19 19 20 21 22 23 23 24 25 25 25
7 8 7 7 7 7 6 6 5 3 2 3 3 4 5 7 7 7 6 6 5 5 5 5 5 5 4 4 4 6 9 10 9 10 10 10 10 9 8 8 7 7 6 6 6 6 6 6 7 9 10 10 10 11 11 12 13 13 14 14 13 11 10 9 9 10 10 11 15 17 18 23 23 22 22 22 21 20 19 20 20 21 22 22 23 24 25 25
6 6 5 4 4 3 3 2 1 1 2 3 3 4 6 7 8 7 7 7 5 4 5 5 6 6 3 4 6 7 10 11 10 10 8 8 9 8 8 7 7 7 6 6 5 5 4 4 6 8 8 9 9 9 10 10 10 11 11 9 8 8 8 9 9 9 9 11 14 15 17 22 23 22 22 21 21 20 19 19 19 19 19 20 21 22 23 24
4 3 3 2 2 1 1 1 2 2 2 2 3 4 6 8 8 7 7 7 5 4 5 5 7 4 3 6 9 9 11 11 11 10 8 7 7 7 7 7 7 6 6 5 4 3 3 4 5 6 6 7 8 8 9 8 7 7 7 6 6 8 9 10 10 11 14 16 18 17 19 22 23 22 22 21 20 19 18 18 18 17 17 17 18 19 20 21
3 3 3 3 3 2 2 2 3 3 2 2 4 6 7 8 7 7 6 6 5 5 6 6 7 4 1 8 10 8 10 11 10 11 9 7 7 7 6 6 7 7 6 4 3 4 4 5 5 4 4 5 6 7 8 6 6 7 8 9 10 11 14 15 15 17 17 17 19 20 22 25 25 24 22 21 20 19 18 17 17 16 15 15 15 16 17 18
3 4 4 4 3 3 3 3 3 3 3 4 6 7 7 7 7 6 5 5 7 7 6 7 9 5 3 10 11 10 11 11 11 11 9 8 7 7 6 7 8 7 5 3 4 4 3 3 3 3 3 4 5 6 8 7 8 11 12 14 15 16 18 18 19 19 17 15 18 21 23 26 27 26 24 22 21 20 19 18 17 15 14 15 15 16 17 17
4 4 4 4 4 4 3 4 4 4 5 6 7 7 7 6 5 4 4 6 7 7 7 8 10 9 8 11 11 11 11 11 11 11 10 10 9 8 8 8 8 6 4 3 4 4 4 4 4 4 5 6 6 7 9 11 12 14 16 17 18 18 18 17 16 16 14 13 17 21 22 24 26 25 24 23 22 21 20 19 17 15 14 15 15 16 16 17
4 4 4 5 5 5 6 6 6 6 7 7 7 7 6 5 4 4 4 4 4 8 10 10 11 12 12 12 11 11 11 12 12 12 10 10 10 9 8 8 7 7 6 6 7 6 6 5 4 6 8 9 9 10 11 12 13 14 15 16 16 16 15 12 12 11 10 11 15 18 19 21 23 23 23 23 23 22 21 19 16 15 14 14 15 15 16 16
5 5 6 6 7 7 7 8 7 7 6 6 6 5 4 3 3 2 3 3 4 10 11 11 12 12 12 12 10 9 11 11 11 11 10 10 10 8 8 7 7 7 7 8 8 6 4 4 6 8 10 11 11 11 10 9 10 10 10 12 12 12 11 9 9 10 9 11 14 16 17 20 21 21 22 23 23 22 20 17 15 15 15 15 15 16 15 15
6 6 7 8 8 8 8 8 7 6 5 5 5 4 3 2 1 1 3 4 7 11 12 12 12 12 11 11 9 8 9 8 7 10 10 9 9 8 8 8 8 8 8 7 6 4 4 7 10 10 10 11 11 10 9 7 7 8 10 12 11 10 9 6 7 8 8 11 14 16 17 19 20 21 22 22 22 20 18 17 17 17 16 16 15 14 13 12
6 7 8 8 8 8 7 7 7 6 5 4 3 3 2 1 1 1 3 4 8 12 13 12 11 11 11 11 10 8 8 8 7 10 10 10 10 9 9 8 9 8 7 6 5 5 8 11 12 11 11 12 10 9 7 6 8 11 13 12 9 8 8 7 7 9 11 13 15 17 18 19 20 20 21 21 20 18 17 17 16 15 14 13 12 10 10 10
6 8 8 8 8 8 7 6 6 5 5 4 4 3 2 1 0 2 4 5 8 12 12 11 11 12 12 12 11 7 9 12 11 12 12 12 11 10 9 9 9 8 7 6 5 8 12 13 12 11 11 10 8 8 10 11 13 14 12 10 9 8 9 10 12 14 16 17 18 18 16 17 19 20 20 20 19 18 16 13 11 10 9 8 7 7 7 8
7 9 9 9 8 8 7 6 5 5 5 5 4 3 3 2 1 2 5 5 8 11 11 11 11 13 13 12 12 8 9 13 13 14 14 13 12 12 11 9 9 9 8 7 5 8 13 13 11 9 8 8 8 11 15 17 17 14 12 12 13 12 12 14 16 17 16 15 15 13 8 9 13 16 17 18 17 14 11 9 8 7 6 5 5 6 6 7
8 9 10 10 9 8 7 6 5 5 5 4 4 4 3 2 1 3 6 5 9 12 12 11 11 13 13 12 14 10 9 13 15 14 12 13 14 12 11 9 9 9 8 8 6 7 12 12 8 6 6 7 9 14 18 17 16 14 13 15 16 16 17 18 18 17 14 10 11 11 9 7 8 10 11 12 12 10 8 6 5 4 4 4 5 6 7 7
8 9 10 10 9 9 7 5 4 4 4 4 4 4 2 1 2 4 5 3 8 12 12 12 12 13 14 13 14 11 10 12 13 12 11 14 15 13 10 8 9 10 10 8 6 7 9 8 7 6 7 9 13 17 18 17 16 15 14 15 17 17 18 19 19 18 14 12 12 12 13 11 9 9 10 11 11 8 4 1 2 2 3 4 5 5 6 6
8 9 10 10 10 9 7 5 4 4 4 4 4 3 2 1 4 4 3 2 5 10 11 11 11 12 14 15 14 11 11 12 11 13 14 13 14 10 8 9 10 11 12 11 9 9 8 8 8 9 10 13 17 18 17 16 15 14 14 15 17 17 16 16 15 12 9 6 7 8 9 9 6 7 9 10 11 6 2 1 3 3 4 4 4 4 4 4
7 9 10 10 9 8 6 5 5 5 4 4 3 2 1 3 5 4 3 2 4 8 9 10 10 10 11 12 11 11 12 13 12 14 13 10 12 10 8 11 12 12 14 13 11 10 9 10 11 11 13 15 18 18 16 14 15 16 17 17 15 13 11 12 13 9 5 2 7 13 3 7 4 6 7 7 6 4 3 4 5 5 4 4 4 4 4 5
7 10 11 11 8 7 6 6 5 5 4 4 2 1 2 3 4 4 3 2 4 7 8 9 10 9 8 7 9 10 12 13 13 13 11 9 13 10 6 9 10 9 13 13 11 11 10 11 12 13 13 14 17 18 15 14 16 17 18 17 12 10 11 13 14 10 6 2 5 16 10 3 3 6 7 7 6 4 4 4 5 5 4 4 4 5 6 7
8 10 11 10 8 7 7 6 5 4 4 3 1 1 3 4 3 4 3 1 3 6 6 8 9 10 10 9 10 11 11 13 12 12 12 11 12 10 7 10 11 9 12 14 13 11 9 11 15 13 11 14 16 16 14 15 16 16 18 19 14 11 11 11 13 10 4 1 4 14 16 6 5 5 8 10 8 3 3 4 6 5 4 4 5 6 8 10
8 10 11 10 7 7 6 5 5 4 3 2 2 1 3 4 5 5 4 1 2 5 5 8 9 10 11 11 11 12 12 13 14 14 16 16 16 17 16 18 18 14 15 17 15 9 6 11 15 11 11 16 16 15 14 16 17 17 20 22 14 7 7 7 7 5 1 5 11 19 19 8 6 6 8 9 6 3 4 6 7 6 5 6 7 9 11 13
8 10 10 8 6 5 5 5 5 4 3 1 2 2 3 3 5 5 5 4 3 4 5 8 10 10 11 11 12 14 13 14 15 14 16 16 16 19 19 19 20 16 14 14 14 11 6 8 13 11 12 18 19 17 17 17 18 20 23 21 11 4 4 3 3 2 3 10 17 20 14 5 6 9 10 9 7 6 6 7 7 7 7 8 10 12 15 17
8 9 8 6 6 6 6 6 4 3 2 2 3 3 3 4 6 5 6 6 6 6 4 6 10 9 11 13 14 14 13 14 15 13 14 14 14 17 19 18 18 17 14 12 13 14 7 5 11 13 14 18 17 14 15 15 14 18 22 19 11 6 4 1 3 1 4 12 18 16 7 4 7 10 11 10 10 9 9 9 9 9 10 11 14 16 18 22
7 8 6 6 6 6 6 4 5 3 3 4 5 4 5 7 7 6 6 6 6 7 5 4 8 8 10 13 14 14 12 12 13 12 14 16 17 19 19 19 19 18 17 13 12 13 8 5 10 13 15 17 14 10 12 13 11 14 19 19 13 7 4 3 5 6 8 9 11 8 5 8 11 11 10 10 10 10 10 11 11 12 13 15 17 19 23 27
6 5 5 6 5 5 5 4 5 4 4 5 4 5 9 9 7 7 7 6 6 9 6 3 6 8 10 12 13 13 12 11 12 12 14 16 16 18 20 19 18 18 17 15 13 13 8 6 10 14 14 13 10 8 12 14 11 12 17 19 13 4 4 8 8 8 7 3 4 5 6 10 11 10 11 10 11 11 10 12 14 14 16 18 20 24 28 31
4 4 5 5 5 4 5 5 5 5 6 4 4 9 13 12 9 8 7 6 7 9 8 5 7 10 11 12 13 13 11 10 11 12 14 14 13 16 19 17 16 16 15 15 14 14 9 4 8 14 12 9 9 9 11 13 12 12 15 15 11 3 4 8 6 6 5 1 4 6 8 10 9 9 12 12 13 13 13 15 16 17 19 21 25 29 31 31
3 4 5 5 4 5 6 5 5 7 7 5 8 14 14 12 10 9 8 7 7 8 9 9 9 10 12 12 13 13 11 10 12 12 13 14 12 14 16 15 14 14 14 14 13 14 11 4 6 12 11 7 7 8 10 11 12 14 13 14 11 2 3 8 6 3 3 1 4 7 8 11 11 11 13 15 15 15 15 17 18 19 22 25 29 32 31 30
4 4 4 4 5 6 6 8 9 10 7 5 12 16 14 12 11 9 8 8 8 8 10 10 10 10 12 12 13 13 11 11 13 12 12 13 11 12 14 13 13 12 12 12 12 14 10 5 7 11 9 6 5 8 9 8 11 14 14 16 15 7 5 10 4 2 2 1 2 5 6 8 11 13 16 17 16 16 16 19 21 22 26 30 32 31 29 29
4 4 3 5 6 6 8 12 12 8 5 9 15 16 14 13 12 10 9 9 8 9 10 10 10 10 12 12 12 13 11 10 12 12 12 13 11 11 12 12 11 12 11 11 12 13 8 5 9 11 8 6 6 7 8 8 11 14 15 17 17 12 9 9 4 4 3 2 2 1 4 13 16 17 19 18 16 17 19 22 24 26 29 32 31 30 29 30
4 3 4 7 8 9 12 14 11 7 9 14 16 15 14 13 11 10 10 9 9 9 10 10 10 10 12 12 11 12 10 8 10 11 11 12 11 11 10 10 11 11 11 11 12 12 6 5 11 11 8 7 6 5 6 7 11 14 16 16 16 15 11 5 2 4 5 5 5 2 5 19 23 17 16 17 18 22 24 26 28 29 31 32 29 29 31 32
5 5 7 9 10 13 13 12 11 11 14 16 15 14 14 12 11 11 11 10 10 9 10 10 10 11 12 11 11 12 9 7 9 10 10 11 11 10 9 10 10 10 11 11 12 12 5 5 12 11 8 8 6 6 6 7 11 14 15 15 15 15 11 3 1 5 6 8 11 6 5 17 21 17 18 22 23 26 27 28 31 32 31 30 29 30 32 33
7 8 10 10 11 14 12 10 13 14 15 16 15 14 13 11 11 11 11 11 10 10 9 10 10 11 11 11 10 11 10 7 8 9 10 10 10 10 8 9 10 10 11 12 13 13 6 5 12 11 9 8 6 6 7 7 11 15 16 16 15 15 13 9 7 10 9 10 11 5 4 14 19 20 23 26 27 28 28 30 32 31 30 29 30 32 32 33
7 9 11 10 12 14 12 11 13 14 15 16 15 13 12 12 11 11 11 12 11 10 9 10 11 11 11 11 9 10 9 7 7 8 9 10 9 9 7 8 9 9 11 12 13 12 8 7 10 8 7 8 5 4 6 8 12 15 17 17 16 16 14 12 11 9 8 10 10 6 7 17 22 24 27 27 27 27 27 29 30 29 30 30 31 32 32 33
9 11 12 13 13 13 13 14 14 14 15 15 13 12 12 11 11 11 11 11 11 10 10 10 11 11 11 11 10 10 9 8 7 7 8 9 8 7 7 6 7 9 10 12 12 12 10 9 9 6 4 4 5 6 9 12 15 17 18 17 17 16 14 12 10 9 8 10 11 11 15 24 27 27 28 27 25 27 26 26 28 29 30 31 31 32 33 34
9 10 13 16 15 12 13 16 15 14 14 13 12 12 11 10 11 11 11 11 11 10 10 10 11 11 11 10 10 10 9 8 8 7 8 9 7 7 6 5 7 9 10 11 12 11 10 9 9 9 6 6 11 13 12 13 17 19 20 19 18 17 15 14 11 12 12 12 16 21 22 28 31 28 26 23 23 25 26 26 28 29 30 31 32 32 33 34
9 9 11 13 13 12 14 17 15 13 13 12 12 12 11 10 10 11 11 11 11 10 10 10 10 10 10 10 10 10 9 8 8 8 8 7 6 7 5 4 6 8 9 11 11 10 11 10 10 12 12 11 14 14 12 14 18 21 23 23 21 17 16 17 16 16 15 14 19 23 21 27 34 30 24 22 22 24 27 28 29 30 31 32 33 33 35 36
11 11 12 12 12 14 15 15 15 13 12 11 12 12 11 11 11 11 11 11 11 11 10 10 10 10 10 10 10 10 9 8 8 7 7 7 6 6 5 4 5 8 9 10 10 11 10 10 11 15 14 12 13 13 13 16 19 23 25 24 20 17 18 19 18 19 20 20 23 24 24 30 35 29 23 22 23 26 29 30 31 32 33 34 34 35 36 37
13 14 14 13 14 14 14 14 14 13 11 11 12 12 12 11 11 11 11 11 11 11 10 10 10 10 10 10 9 9 8 8 8 7 7 7 6 5 5 4 5 8 9 9 10 11 10 11 13 16 15 12 10 12 15 18 21 24 23 19 18 18 18 20 20 21 22 26 28 27 29 34 32 28 26 24 24 29 32 31 32 33 34 35 36 36 37 37
13 15 14 12 13 14 13 13 13 12 11 12 12 12 12 12 11 12 12 12 11 10 10 10 10 9 9 10 9 8 8 8 7 7 6 6 6 5 4 4 5 7 9 10 11 11 11 12 12 16 19 12 7 13 18 19 23 25 19 14 15 18 19 22 23 22 22 28 28 26 32 36 32 29 28 27 28 34 35 33 34 35 35 36 37 37 38 38
13 15 14 10 12 14 13 12 12 11 11 12 12 13 12 12 12 12 12 12 11 10 10 10 10 9 10 10 9 8 8 8 7 7 6 6 6 5 5 5 7 8 9 10 11 11 12 13 13 17 19 14 12 17 19 20 24 23 15 11 14 18 21 22 23 23 24 27 28 28 34 36 35 33 31 29 32 38 37 36 36 36 36 37 38 38 39 40
14 15 15 10 10 13 13 11 12 11 11 12 13 13 13 13 13 12 12 12 11 11 10 10 10 10 10 10 10 9 9 9 8 8 7 7 7 6 6 6 7 8 9 9 10 12 13 14 16 15 17 18 18 18 21 24 20 14 11 13 15 17 19 22 24 23 23 26 29 32 35 36 37 36 33 33 37 39 38 37 37 37 38 38 38 39 40 42
Wind_Direction
122 121 120 120 119 120 120 119 117 114 111 110 108 105 103 99 94 87 75 64 50 35 18 1 345 333 326 322 317 310 309 316 318 314 304 281 272 272 271 280 287 288 285 285 286 284 280 275 272 272 273 272 261 252 252 251 247 242 236 235 248 260 264 274 281 274 272 275 276 265 252 250 256 263 267 271 277 281 283 284 283 282 279 273 267 263 261 261
122 120 117 115 114 113 113 114 113 111 110 108 106 102 97 89 76 56 33 13 356 344 334 328 321 315 311 310 306 302 303 304 307 304 287 264 259 263 272 280 282 282 281 281 280 280 280 279 275 271 270 270 265 254 246 248 248 248 246 246 256 267 276 283 282 277 272 268 269 264 262 266 272 276 277 278 281 285 286 284 280 276 274 270 267 262 259 258
119 117 115 114 113 112 112 111 111 110 109 106 101 92 77 54 24 355 339 328 321 317 315 311 307 305 303 303 300 298 299 299 301 291 267 253 255 266 277 279 279 279 278 277 277 277 280 281 278 276 273 269 262 250 242 243 245 248 249 253 262 275 284 288 281 272 263 257 264 270 274 277 280 283 284 284 285 286 285 281 277 272 267 265 263 261 259 256
117 116 116 116 115 115 114 113 112 108 103 94 77 47 13 349 331 318 311 306 303 303 303 301 299 300 299 297 296 295 298 299 299 280 257 257 266 276 280 279 279 278 277 277 277 277 278 279 279 278 276 272 262 250 246 247 246 245 246 255 268 280 286 291 288 271 259 257 264 274 280 282 284 286 286 287 288 287 283 278 272 267 263 260 258 257 256 253
116 116 116 116 115 114 113 111 107 99 86 54 1 334 323 315 307 302 299 297 298 299 298 297 296 296 295 295 294 297 300 300 297 278 267 273 278 281 282 282 281 279 277 277 277 278 279 279 282 281 278 276 268 260 259 256 252 249 252 262 270 278 286 293 291 275 262 262 269 278 284 284 285 285 286 288 287 284 279 273 269 267 264 260 257 255 255 253
117 116 116 115 113 112 110 106 99 76 349 315 306 304 301 296 293 292 293 295 296 296 295 293 294 293 293 293 295 301 305 302 299 291 284 282 282 286 288 288 284 282 280 279 278 278 280 282 283 283 282 279 271 266 263 255 253 256 259 265 270 277 285 287 284 274 265 265 272 279 284 284 284 283 283 284 282 278 275 272 270 269 268 265 261 258 257 257
120 119 118 117 115 113 108 99 293 290 287 288 289 290 290 290 291 294 294 294 294 293 294 294 293 292 293 299 303 309 313 307 305 300 293 286 286 292 295 294 291 289 285 281 281 282 284 287 288 286 285 281 273 266 256 243 243 251 258 263 265 270 274 274 272 268 263 262 269 277 280 281 281 280 280 280 277 274 272 271 269 267 266 265 263 260 259 258
122 121 120 119 120 135 267 279 281 281 282 284 286 288 291 294 295 296 295 295 295 295 296 297 298 298 304 312 314 318 318 310 308 304 298 295 296 300 301 300 299 296 289 284 283 285 288 289 289 287 283 277 272 266 256 247 241 245 253 258 261 265 268 265 262 261 259 260 268 275 278 278 279 280 279 275 271 269 268 267 266 265 264 262 262 261 259 258
126 127 128 135 279 290 289 289 290 291 293 294 296 298 299 300 299 298 298 298 299 298 300 303 302 306 312 318 320 319 316 311 313 313 310 310 310 308 305 302 304 300 292 288 284 286 288 286 283 279 277 273 271 268 262 258 254 253 255 256 260 265 264 259 257 259 261 267 273 276 277 278 281 281 274 268 264 262 262 262 263 263 263 262 262 262 261 260
135 151 297 300 299 299 300 300 300 300 302 303 304 306 305 305 305 304 304 304 303 301 303 303 300 307 313 316 321 321 323 326 323 323 323 320 316 315 316 314 311 304 293 289 286 285 283 280 277 274 273 272 271 270 267 264 262 263 261 256 257 260 262 263 263 265 268 272 275 275 276 278 281 278 270 266 262 259 259 259 261 262 263 263 264 264 264 263
289 291 292 295 296 297 298 298 300 302 305 306 307 313 318 324 326 328 330 328 324 320 317 312 307 313 318 319 327 334 337 334 328 329 330 329 329 326 327 327 320 313 299 293 288 280 277 275 275 274 273 274 274 273 272 268 265 265 264 263 261 260 263 266 268 270 271 271 272 272 274 275 277 273 268 266 261 258 258 258 261 263 264 265 265 265 264 264
286 288 288 291 292 293 294 294 297 300 303 309 321 341 1 10 11 11 9 4 355 350 345 335 331 339 341 335 344 350 345 341 335 335 336 336 337 330 327 329 327 326 315 305 298 283 281 280 277 273 271 274 276 274 272 271 269 267 268 268 265 261 261 263 267 270 270 270 271 271 271 269 267 265 264 263 260 257 257 258 260 263 265 267 267 266 264 263
292 293 292 291 290 288 288 289 293 298 308 330 8 29 32 25 18 18 18 7 359 2 2 0 4 4 358 357 6 358 348 346 338 334 335 334 335 331 325 326 324 325 320 312 308 296 290 288 281 276 273 273 273 272 271 270 270 269 270 272 271 270 266 263 267 274 276 271 269 266 262 261 259 257 258 257 257 255 253 255 258 261 265 267 267 267 265 262
300 297 294 289 284 282 282 287 294 306 340 32 56 45 29 20 14 15 15 4 360 7 7 11 12 4 9 20 10 350 341 340 340 336 332 330 331 331 325 320 314 312 312 307 304 298 290 280 274 271 269 269 267 266 266 269 271 272 273 275 278 278 272 274 282 291 291 275 267 262 257 262 261 257 256 255 254 253 252 255 257 260 263 264 265 265 264 263
305 303 302 296 290 289 287 300 324 10 47 67 62 34 20 15 12 13 10 4 6 9 12 17 8 8 45 25 351 341 340 340 342 338 331 334 332 326 322 315 308 311 314 312 304 292 283 274 271 271 271 273 270 267 270 275 277 277 279 279 280 281 280 288 298 307 304 289 280 268 258 263 264 260 259 257 256 255 256 257 259 261 262 262 262 262 263 263
326 339 360 12 23 35 46 52 60 66 64 60 38 16 10 10 9 9 6 9 20 25 27 25 9 24 74 9 350 343 344 341 340 339 340 342 330 322 319 313 315 320 318 317 309 288 289 294 289 286 290 289 282 281 287 290 286 287 293 291 285 288 289 293 298 299 296 290 282 269 258 261 265 265 263 260 260 260 260 260 261 263 263 263 262 261 262 262
14 26 34 36 41 49 59 69 72 68 46 18 7 360 0 4 5 7 10 25 42 39 35 27 18 38 51 352 349 344 343 342 345 348 348 344 333 329 332 334 336 331 330 329 305 296 304 309 312 315 316 311 302 306 314 312 302 301 300 293 289 292 293 295 296 292 289 282 271 261 255 257 262 264 264 263 264 263 263 264 265 264 264 263 263 263 264 264
21 21 25 32 37 47 59 63 52 31 6 351 348 349 349 355 4 8 22 48 51 41 33 25 24 33 354 344 348 350 352 355 0 358 355 359 352 346 356 358 349 342 340 322 300 312 326 328 332 335 340 342 327 320 324 320 309 305 300 296 294 294 293 294 295 291 286 276 261 254 251 253 257 260 263 265 266 266 267 268 268 267 267 268 270 270 269 267
21 23 29 36 38 36 29 20 8 352 344 337 336 339 340 348 3 11 39 60 52 41 34 25 24 27 7 353 356 4 7 8 9 6 6 11 8 6 12 6 1 3 359 342 344 358 1 352 348 358 360 348 330 314 310 306 305 306 305 304 303 301 299 297 295 290 286 273 255 252 252 254 257 260 263 266 267 270 271 273 273 273 276 277 275 272 268 265
35 34 32 28 21 7 352 345 344 337 331 327 329 334 335 342 352 13 56 77 44 35 35 26 24 26 16 7 9 14 15 12 8 6 6 6 9 13 13 8 9 10 10 15 13 9 7 3 11 12 354 335 322 312 304 301 304 308 308 309 307 303 303 302 298 294 286 270 254 252 255 257 259 260 263 266 267 270 272 276 280 282 283 280 275 271 266 264
39 30 21 13 0 351 341 336 335 331 328 326 329 332 333 342 351 31 83 108 53 38 34 29 28 27 22 19 18 15 14 8 1 1 1 4 10 10 9 10 11 10 10 15 15 16 21 15 8 354 337 328 328 323 317 313 311 314 317 319 315 307 309 309 298 290 278 266 261 262 264 262 260 261 262 265 266 269 274 279 284 286 285 281 275 270 266 264
34 21 13 6 355 349 344 336 333 334 335 331 331 334 334 341 354 78 131 116 60 42 35 34 29 21 19 16 14 14 12 360 353 3 7 14 17 13 13 11 14 21 15 18 40 57 41 14 4 354 348 349 348 343 342 337 325 322 323 325 324 315 315 313 287 275 270 270 273 276 274 266 261 260 261 263 266 271 278 284 288 287 283 278 274 270 266 265
27 17 12 7 359 353 346 337 335 337 338 338 344 346 348 343 335 120 154 128 61 42 37 35 25 18 17 11 9 13 14 8 7 16 20 21 20 21 21 12 15 24 22 38 69 49 27 20 12 13 15 6 359 357 354 345 332 329 330 334 336 329 324 318 290 280 283 283 282 281 273 263 260 259 260 264 270 276 284 289 289 284 277 275 273 270 267 261
24 18 15 10 3 357 350 343 338 342 349 359 4 353 358 4 22 111 147 130 56 35 30 29 20 19 19 15 16 15 15 16 17 22 24 20 18 21 24 16 13 21 30 48 47 17 23 28 21 19 14 2 2 3 354 348 346 346 351 352 345 332 319 311 301 297 296 289 282 280 269 255 252 257 263 270 277 283 291 293 287 280 277 278 272 265 263 258
24 21 15 11 6 359 356 351 346 353 358 360 1 351 1 16 70 116 147 124 48 28 23 23 20 20 20 18 19 16 9 13 17 20 18 17 17 19 21 15 20 36 39 33 16 4 17 23 20 16 9 6 1 355 354 353 353 355 354 349 339 326 313 308 304 303 301 291 286 281 261 248 251 255 262 270 277 284 292 294 288 287 285 279 275 271 270 266
26 22 12 6 5 0 358 355 354 359 359 357 356 357 7 20 95 127 147 119 39 25 22 19 21 21 18 17 18 16 4 8 18 18 11 15 17 17 19 19 35 47 31 16 9 7 14 17 19 15 9 1 348 353 359 357 353 349 342 337 329 319 315 312 306 301 297 289 294 284 253 257 270 261 263 265 269 276 286 298 299 304 307 295 298 296 287 282
24 17 7 2 1 360 359 0 7 5 360 1 360 5 10 26 113 136 147 118 19 16 20 20 23 19 14 18 18 16 14 14 15 10 11 21 18 12 13 22 38 36 23 18 16 17 20 23 34 29 5 352 353 360 0 353 346 341 335 330 325 325 322 316 308 302 294 284 293 285 255 260 283 269 265 264 264 272 275 308 350 332 331 322 316 311 300 299
16 9 3 357 356 359 360 6 14 10 7 7 3 10 18 67 121 136 127 94 11 10 17 18 23 18 13 13 9 13 23 20 16 14 16 20 17 13 15 25 34 29 24 22 22 30 36 40 42 26 6 4 8 6 357 350 349 347 346 340 336 335 325 320 321 318 312 294 322 324 251 242 288 275 263 265 260 260 239 327 3 1 353 342 330 325 316 314
6 1 357 355 355 356 2 10 11 9 10 7 6 24 69 103 125 126 100 84 14 12 16 15 18 20 15 7 0 11 19 17 22 24 17 9 12 15 21 28 32 28 21 19 30 46 54 51 36 15 12 15 13 9 2 2 3 359 356 350 346 344 342 356 5 8 18 26 27 20 321 224 286 284 259 269 258 235 245 296 343 357 354 346 337 326 316 313
354 352 352 353 353 353 3 10 11 16 13 11 22 49 82 112 141 126 86 46 8 16 18 13 12 14 14 5 4 16 19 16 21 24 19 19 19 18 30 35 37 38 28 26 41 57 65 53 27 17 23 16 12 15 14 11 5 357 355 356 1 7 8 15 17 20 35 56 38 24 8 243 267 284 267 286 284 243 245 287 322 323 326 328 316 309 306 312
343 346 349 351 352 357 7 14 19 24 15 17 48 86 98 111 133 118 85 23 8 13 11 13 11 8 10 11 14 18 18 15 16 17 17 19 14 12 26 29 30 43 39 37 47 60 71 44 23 24 22 7 10 19 19 14 5 358 1 6 11 13 9 12 14 23 38 315 333 353 345 300 239 278 292 298 294 250 235 273 292 291 288 295 298 301 306 313
333 342 348 350 356 4 12 20 19 18 17 35 85 114 129 109 83 81 73 28 355 4 11 15 12 11 11 11 14 17 17 15 14 14 14 12 8 13 23 24 23 28 30 33 41 52 66 37 25 23 9 3 7 13 15 14 9 9 12 14 18 17 13 12 7 15 329 292 315 330 332 306 248 289 311 309 301 260 252 271 282 285 286 291 295 302 309 314
330 342 347 351 3 10 12 13 9 16 32 72 120 130 161 128 77 71 61 54 34 16 18 13 12 14 11 10 15 16 16 15 16 17 15 12 14 24 32 30 28 31 30 32 36 42 58 38 23 18 6 2 2 8 13 11 12 17 17 20 32 56 34 357 309 342 302 302 320 329 327 297 283 312 320 316 308 293 283 285 291 294 293 295 300 307 312 316
334 341 347 360 7 3 4 10 24 46 63 105 130 141 144 110 94 88 65 59 47 30 25 16 15 12 8 13 18 16 13 14 17 17 11 10 18 28 34 32 32 35 34 34 33 36 49 33 16 15 6 358 359 9 11 7 15 19 18 22 32 61 78 277 259 260 271 291 314 327 321 289 304 315 317 313 308 305 304 305 303 302 300 301 305 309 313 316
336 339 353 6 0 1 8 31 60 71 101 109 117 142 129 106 104 101 73 61 48 32 30 28 20 13 13 18 18 15 15 16 15 11 9 15 22 25 27 29 30 32 34 34 32 33 47 53 20 9 0 356 1 9 0 5 19 14 16 21 20 42 76 346 299 280 279 289 307 312 298 299 302 306 314 314 310 308 309 310 307 304 302 303 308 311 314 317
341 347 2 2 3 19 30 62 77 82 102 102 109 116 108 105 109 101 78 64 52 34 31 33 18 16 20 21 20 18 16 17 15 12 14 19 25 24 23 25 27 29 32 34 34 31 39 60 29 9 359 356 7 9 354 4 21 13 15 18 9 12 31 1 327 304 316 313 282 284 292 302 303 307 315 317 315 311 305 305 304 303 305 307 311 315 316 316
355 360 10 16 35 52 56 71 81 88 85 85 119 107 100 102 99 93 81 62 51 38 34 33 18 18 19 16 18 19 17 18 16 15 20 21 23 23 21 23 27 28 27 29 32 24 17 41 27 9 1 2 14 8 351 1 17 16 17 14 360 325 346 357 333 317 354 7 273 284 284 288 292 302 312 315 313 309 303 304 305 305 308 310 314 315 314 314
15 19 29 42 64 66 67 81 92 89 77 81 112 102 97 98 90 85 78 59 48 37 31 34 26 19 17 13 13 15 17 21 18 19 24 20 19 22 20 21 27 27 24 24 24 17 12 21 18 8 4 7 12 6 358 2 9 10 9 5 8 15 305 340 345 316 344 332 293 296 282 277 275 284 307 313 309 306 304 305 306 307 309 312 314 314 313 313
37 44 49 63 73 72 82 92 84 79 80 98 104 97 94 94 86 79 70 54 45 35 29 31 26 16 15 15 13 12 15 21 20 20 23 20 18 21 19 21 26 26 23 22 17 12 11 11 7 5 1 351 356 9 9 1 358 359 358 359 11 24 314 324 333 219 263 275 278 305 298 279 282 297 310 312 307 305 304 304 305 307 311 313 314 313 312 313
63 64 74 79 80 82 82 78 70 71 94 99 95 95 93 89 79 70 62 51 40 34 29 27 22 16 14 14 13 13 14 19 20 21 24 23 19 18 20 22 24 22 20 21 14 6 5 1 356 1 6 1 0 11 5 350 351 351 350 355 2 4 342 325 300 242 252 212 195 340 290 284 299 312 310 307 307 305 305 305 305 308 311 313 313 312 312 313
78 83 98 91 86 78 70 71 76 88 96 91 90 91 88 82 73 64 54 45 37 30 27 22 18 17 14 14 14 13 13 15 19 22 23 22 21 20 20 18 18 19 16 15 11 5 4 353 349 352 7 9 1 2 352 335 338 342 344 348 352 356 353 343 298 240 225 232 249 199 262 289 306 319 312 309 310 307 307 307 306 307 310 311 312 311 312 313
86 94 97 94 88 80 72 76 87 89 87 88 89 87 84 77 68 58 45 39 34 27 24 19 16 17 16 15 14 11 10 12 18 22 21 21 22 20 17 15 16 13 10 11 9 7 8 351 351 352 357 360 355 354 345 325 327 331 333 335 343 349 344 330 255 256 253 261 263 239 246 289 309 323 316 314 312 309 310 308 307 308 309 311 311 311 311 312
93 97 91 88 87 84 81 80 84 86 87 87 86 83 80 72 61 51 40 35 29 24 23 17 15 16 15 16 16 10 9 9 13 18 20 18 17 16 15 12 11 9 9 9 5 5 10 352 351 351 348 352 351 344 338 322 321 324 324 326 331 336 330 317 287 274 272 260 251 226 237 281 305 320 316 315 313 311 310 307 306 307 308 311 311 310 311 312
91 94 92 89 85 85 85 81 80 85 86 85 84 79 73 64 54 46 37 30 25 22 20 16 16 15 14 16 16 10 9 10 11 13 16 14 12 13 10 4 9 10 9 8 3 4 6 351 349 349 348 354 353 337 332 319 315 318 319 319 320 323 324 316 291 269 260 254 239 199 238 284 309 317 313 315 313 308 306 303 303 306 308 309 309 309 311 312
82 86 89 87 81 83 89 84 78 78 79 80 80 73 65 55 47 40 33 27 23 21 18 16 16 14 13 14 10 9 11 13 12 9 10 11 8 7 1 1 7 6 8 9 2 359 357 348 351 352 347 343 312 305 316 313 312 317 318 315 313 313 313 306 283 248 241 250 239 229 264 295 310 313 313 317 312 304 301 300 302 305 306 307 307 309 312 312
82 84 86 86 85 85 87 85 79 74 73 73 71 64 57 49 40 33 29 26 23 21 19 17 15 12 12 11 7 8 8 8 11 7 5 6 2 358 356 358 2 3 7 4 357 357 352 341 342 339 328 313 306 308 311 305 305 315 318 312 305 304 303 294 265 242 248 259 259 263 281 298 307 315 321 316 304 300 302 305 306 306 306 307 308 310 312 313
85 90 88 89 92 88 83 83 80 73 69 66 62 58 51 45 37 30 27 25 23 23 20 17 14 12 11 8 5 6 6 6 6 360 359 359 353 352 351 352 359 360 360 357 356 356 346 335 333 330 326 321 315 312 307 298 301 311 315 311 303 296 291 279 261 257 262 260 266 279 292 298 304 319 324 309 299 302 306 309 308 307 308 309 310 313 314 315
85 89 89 89 94 90 84 83 80 73 67 60 56 53 46 41 36 29 26 23 23 23 18 16 15 12 10 9 5 3 2 4 1 354 353 351 346 351 353 347 351 353 353 352 352 350 342 335 331 326 328 329 316 308 306 304 305 308 310 310 300 284 277 273 268 269 267 259 269 286 296 297 306 321 320 302 300 305 308 310 309 309 311 311 312 315 315 314
83 83 84 87 92 90 86 83 79 72 63 55 52 49 43 40 36 29 26 23 21 20 17 14 13 9 8 9 5 0 359 0 358 349 344 343 340 345 350 348 343 345 346 346 347 348 340 333 329 323 326 333 316 307 314 313 308 307 306 301 287 276 272 269 272 276 268 265 275 286 290 296 310 323 312 298 300 307 309 310 310 311 312 312 314 316 315 313
83 81 78 80 87 88 84 80 77 70 61 54 50 47 43 39 35 30 26 23 19 17 15 13 11 8 7 6 3 359 358 356 352 344 337 336 335 334 338 344 340 337 340 342 344 343 336 332 330 321 322 332 327 314 316 313 307 304 298 284 276 276 272 269 275 279 270 270 280 286 286 295 314 321 305 296 303 309 310 310 311 313 313 314 316 317 315 313
80 82 78 72 80 86 83 77 75 68 59 53 48 46 44 38 35 31 25 22 19 14 13 12 10 7 4 3 358 356 358 355 345 340 334 327 328 329 323 330 335 333 335 336 334 336 335 331 330 323 315 319 329 319 313 312 306 297 283 277 280 277 274 274 278 280 278 281 285 283 285 298 316 316 302 298 306 310 310 311 312 312 314 316 317 317 315 313
76 78 78 70 75 85 83 75 72 65 56 52 46 43 42 37 35 30 23 20 17 12 11 10 9 6 2 359 354 352 356 353 343 337 334 325 322 322 316 316 323 323 325 328 325 329 332 327 328 324 306 310 327 323 313 315 309 290 284 291 286 278 278 280 281 282 285 287 285 285 292 305 313 309 300 302 308 309 309 311 312 313 316 318 317 315 314 313